CW9825 Weather Reports


time (UTC)temp
F
wind
direction
speed
knots
gust
knots
rain 1hr
in
rain 24hr
in
rain mn
in
humidity
%
barometer
mb
20260505181545 40 267 7.8 18.2 0.00 0.00 0.00 54 1012.9
20260505181045 40 292 8.7 18.2 0.00 0.00 0.00 54 1012.9
20260505180544 40 307 7.8 17.4 0.00 0.00 0.00 55 1012.9
20260505180052 40 355 8.7 17.4 0.00 0.00 0.00 54 1012.8
20260505175544 40 315 10.4 18.2 0.00 0.00 0.00 54 1012.8
20260505175047 40 321 8.7 18.2 0.00 0.00 0.00 54 1012.8
20260505174605 41 296 7.8 17.4 0.00 0.00 0.00 54 1012.8
20260505174044 41 281 10.4 20.0 0.00 0.00 0.00 54 1012.7
20260505173543 41 298 10.4 20.0 0.00 0.00 0.00 53 1012.5
20260505173044 41 177 9.6 18.2 0.00 0.00 0.00 53 1012.5
20260505172541 41 301 7.0 18.2 0.00 0.00 0.00 53 1012.4
20260505172042 40 9 8.7 18.2 0.00 0.00 0.00 54 1012.4
20260505171541 41 223 7.0 19.1 0.00 0.00 0.00 54 1012.2
20260505171041 41 17 5.2 19.1 0.00 0.00 0.00 53 1012.4
20260505170539 42 313 7.8 18.2 0.00 0.00 0.00 54 1012.3
20260505170048 41 337 9.6 19.1 0.00 0.00 0.00 55 1012.2
20260505165537 41 292 7.0 19.1 0.00 0.00 0.00 55 1012.2
20260505165037 41 319 9.6 14.8 0.00 0.00 0.00 56 1012.3
20260505164539 40 333 6.1 16.5 0.00 0.00 0.00 56 1012.3
20260505164039 40 291 11.3 16.5 0.00 0.00 0.00 56 1012.5
20260505163535 40 312 7.0 16.5 0.00 0.00 0.00 57 1012.4
20260505163039 41 321 8.7 16.5 0.00 0.00 0.00 57 1012.4
20260505162534 40 330 7.0 15.6 0.00 0.00 0.00 57 1012.3
20260505162034 40 331 7.0 17.4 0.00 0.00 0.00 56 1012.4
20260505161533 40 321 7.0 19.1 0.00 0.00 0.00 57 1012.3
20260505161035 40 261 8.7 19.1 0.00 0.00 0.00 57 1012.3
20260505160533 40 300 8.7 17.4 0.00 0.00 0.00 56 1012.2
20260505153034 40 284 7.8 16.5 0.00 0.00 0.00 60 1011.9
20260505152529 40 342 8.7 16.5 0.00 0.00 0.00 60 1011.8
20260505152026 40 313 7.0 17.4 0.00 0.00 0.00 60 1011.6
20260505151529 40 11 7.0 13.9 0.00 0.00 0.00 60 1011.5
20260505151025 40 319 8.7 13.9 0.00 0.00 0.00 60 1011.4
20260505150524 40 313 6.1 13.9 0.00 0.00 0.00 61 1011.4
20260505140511 37 336 5.2 11.3 0.00 0.00 0.00 66 1011.1
20260505124554 34 21 3.5 9.6 0.00 0.00 0.00 69 1010.2
20260505124054 35 12 2.6 8.7 0.00 0.00 0.00 70 1010.1
20260505123553 35 23 3.5 8.7 0.00 0.00 0.00 69 1010.0
20260505123109 35 13 3.5 7.0 0.00 0.00 0.00 70 1010.0
20260505122551 34 11 3.5 8.7 0.00 0.00 0.00 71 1009.9
20260505122049 33 9 3.5 8.7 0.00 0.00 0.00 72 1009.8
20260505121548 33 360 2.6 7.8 0.00 0.00 0.00 74 1009.7
20260505121047 33 5 2.6 7.0 0.00 0.00 0.00 75 1009.7
20260505120547 33 331 0.9 5.2 0.00 0.00 0.00 76 1009.6
20260505120047 33 331 0.9 4.3 0.00 0.00 0.00 77 1009.6
20260505115545 33 331 0.0 2.6 0.00 0.00 0.00 77 1009.5
20260505115045 33 331 1.7 2.6 0.00 0.00 0.00 77 1009.4
20260505114606 33 331 0.0 2.6 0.00 0.00 0.00 78 1009.4
20260505114045 33 331 0.0 3.5 0.00 0.00 0.00 79 1009.4
20260505113546 33 331 0.0 3.5 0.00 0.00 0.00 79 1009.5
20260505113043 33 331 0.9 4.3 0.00 0.00 0.00 80 1009.4
20260505112542 33 331 0.9 4.3 0.00 0.00 0.00 81 1009.4
20260505112043 33 331 1.7 4.3 0.00 0.00 0.00 81 1009.4
20260505111555 33 331 1.7 4.3 0.00 0.00 0.00 81 1009.4
20260505111043 33 332 1.7 3.5 0.00 0.00 0.00 82 1009.4
20260505110543 33 332 0.0 2.6 0.00 0.00 0.00 82 1009.3
20260505102037 33 332 0.0 0.0 0.00 0.00 0.00 82 1009.4
20260505101537 33 332 0.0 0.0 0.00 0.00 0.00 82 1009.3
20260505101038 33 332 0.0 0.0 0.00 0.00 0.00 82 1009.3
20260505100537 33 332 0.0 0.0 0.00 0.00 0.00 82 1009.3
20260505100037 33 332 0.0 0.0 0.00 0.00 0.00 82 1009.4
20260505095536 33 332 0.0 0.0 0.00 0.00 0.00 82 1009.3
20260505095038 33 332 0.0 0.0 0.00 0.00 0.00 82 1009.3
20260505094539 33 332 0.0 0.0 0.00 0.00 0.00 82 1009.4
20260505094036 33 332 0.0 0.0 0.00 0.00 0.00 82 1009.3
20260505093534 33 332 0.0 0.0 0.00 0.00 0.00 82 1009.2
20260505093036 33 332 0.0 0.0 0.00 0.00 0.00 82 1009.3
20260505092534 33 332 0.0 0.0 0.00 0.00 0.00 82 1009.1
20260505092034 33 332 0.0 2.6 0.00 0.00 0.00 81 1009.1
20260505091535 33 332 0.9 2.6 0.00 0.00 0.00 81 1009.2
20260505091031 33 332 0.0 2.6 0.00 0.00 0.00 81 1009.0
20260505090533 33 332 0.9 2.6 0.00 0.00 0.00 80 1009.0
20260505090036 33 332 0.9 3.5 0.00 0.00 0.00 80 1008.9
20260505085530 33 332 0.9 3.5 0.00 0.00 0.00 80 1008.9
20260505085030 33 332 0.9 3.5 0.00 0.00 0.00 80 1008.8
20260505084531 33 332 0.9 3.5 0.00 0.00 0.00 80 1008.7
20260505084029 33 332 0.0 2.6 0.00 0.00 0.00 80 1008.9
20260505083528 33 332 0.9 2.6 0.00 0.00 0.00 80 1008.9
20260505083040 33 332 0.0 1.7 0.00 0.00 0.00 80 1008.7
20260505082528 33 332 0.0 1.7 0.00 0.00 0.00 80 1008.7
20260505082028 32 332 0.0 2.6 0.00 0.00 0.00 80 1008.7
20260505081533 32 332 0.9 4.3 0.00 0.00 0.00 80 1008.9
20260505081028 32 332 1.7 4.3 0.00 0.00 0.00 80 1008.8
20260505080527 32 336 1.7 3.5 0.00 0.00 0.00 79 1008.7
20260505080038 32 336 1.7 3.5 0.00 0.00 0.00 79 1008.7
20260505075526 32 336 0.9 2.6 0.00 0.00 0.00 78 1008.8
20260505075026 32 336 0.9 2.6 0.00 0.00 0.00 78 1008.8
20260505074526 32 336 0.9 3.5 0.00 0.00 0.00 77 1008.8
20260505074026 32 338 1.7 3.5 0.00 0.00 0.00 76 1008.8
20260505073523 32 338 0.9 3.5 0.00 0.00 0.00 74 1008.7
20260505073023 33 338 0.9 2.6 0.00 0.00 0.00 73 1008.7
20260505072522 33 338 0.0 1.7 0.00 0.00 0.00 73 1008.7
20260505072021 33 338 0.0 2.6 0.00 0.00 0.00 72 1008.6
20260505071521 33 338 0.9 2.6 0.00 0.00 0.00 72 1008.7
20260505071020 33 338 0.9 2.6 0.00 0.00 0.00 71 1008.6
20260505070521 33 338 0.9 2.6 0.00 0.00 0.00 71 1008.6
20260505070019 33 338 0.9 2.6 0.00 0.00 0.00 70 1008.6
20260505065520 34 338 1.7 4.3 0.00 0.00 0.00 70 1008.6
20260505065017 34 338 1.7 4.3 0.00 0.00 0.00 69 1008.6
20260505064517 34 338 1.7 3.5 0.00 0.00 0.00 69 1008.6
20260505064018 34 338 1.7 4.3 0.00 0.00 0.00 68 1008.5
20260505063516 34 338 1.7 4.3 0.00 0.00 0.00 68 1008.5
20260505063015 34 339 1.7 4.3 0.00 0.00 0.00 69 1008.6
20260505062515 34 339 1.7 4.3 0.00 0.00 0.00 69 1008.6
20260505062014 34 340 1.7 5.2 0.00 0.00 0.00 70 1008.5
20260505061527 35 340 0.9 5.2 0.00 0.00 0.00 70 1008.5
20260505061014 35 341 1.7 7.0 0.00 0.00 0.00 70 1008.4
20260505060513 35 342 2.6 7.0 0.00 0.00 0.00 71 1008.6
20260505060013 35 342 0.9 5.2 0.00 0.00 0.00 71 1008.5
20260505055512 35 346 0.9 4.3 0.00 0.00 0.00 71 1008.5
20260505055011 35 349 1.7 5.2 0.00 0.00 0.00 71 1008.4
20260505054510 35 350 2.6 7.0 0.00 0.00 0.00 70 1008.3
20260505054012 36 350 2.6 7.0 0.00 0.00 0.00 70 1008.3
20260505053512 36 350 3.5 9.6 0.00 0.00 0.00 70 1008.3
20260505053007 36 345 2.6 9.6 0.00 0.00 0.00 71 1008.4
20260505052508 36 338 4.3 8.7 0.00 0.00 0.00 71 1008.3
20260505052005 36 360 5.2 8.7 0.00 0.00 0.00 70 1008.3
20260505051503 37 348 5.2 9.6 0.00 0.00 0.00 71 1008.2
20260505051003 37 355 3.5 9.6 0.00 0.00 0.00 71 1008.2
20260505050504 37 336 2.6 9.6 0.00 0.00 0.00 72 1008.2
20260505041613 38 34 5.2 13.9 0.00 0.00 0.00 75 1007.9
20260505041054 38 337 6.1 13.9 0.00 0.00 0.00 75 1007.8
20260505040553 39 10 7.8 13.9 0.00 0.00 0.00 73 1007.8
20260505040052 39 33 5.2 13.0 0.00 0.00 0.00 72 1007.7
20260505035552 40 329 7.8 13.0 0.00 0.00 0.00 71 1007.6
20260505035052 40 323 5.2 8.7 0.00 0.00 0.00 71 1007.6
20260505034549 40 309 2.6 9.6 0.00 0.00 0.00 70 1007.6
20260505034052 40 340 5.2 10.4 0.00 0.00 0.00 70 1007.6
20260505033547 40 341 6.1 13.0 0.00 0.00 0.00 70 1007.5
20260505033046 40 323 7.0 13.0 0.00 0.00 0.00 69 1007.4
20260505032550 40 302 7.0 11.3 0.00 0.00 0.00 69 1007.4
20260505032045 40 330 6.1 11.3 0.00 0.00 0.00 68 1007.3
20260505031549 40 343 4.3 13.0 0.00 0.00 0.00 68 1007.2
20260505031048 41 323 5.2 13.0 0.00 0.00 0.00 67 1007.3
20260505030548 41 335 4.3 11.3 0.00 0.00 0.00 67 1007.2
20260505030044 41 323 6.1 11.3 0.00 0.00 0.00 67 1007.1
20260505025543 41 348 6.1 13.9 0.00 0.00 0.00 66 1007.2
20260505025041 41 338 7.0 13.9 0.00 0.00 0.00 66 1007.1
20260505024545 41 317 5.2 14.8 0.00 0.00 0.00 66 1007.0
20260505024039 41 339 8.7 14.8 0.00 0.00 0.00 66 1006.9
20260505023538 41 343 2.6 15.6 0.00 0.00 0.00 66 1006.9
20260505023044 41 360 7.0 15.6 0.00 0.00 0.00 66 1006.8
20260505022536 42 360 7.8 13.9 0.00 0.00 0.00 65 1006.7
20260505022034 42 334 7.8 13.9 0.00 0.00 0.00 65 1006.4
20260505021539 42 302 6.1 13.9 0.00 0.00 0.00 66 1006.4
20260505021032 42 331 6.1 10.4 0.00 0.00 0.00 65 1006.2
20260505020531 42 355 4.3 14.8 0.00 0.00 0.00 65 1006.1
20260505020032 42 304 9.6 14.8 0.00 0.00 0.00 64 1006.1
20260505015530 43 321 7.8 13.0 0.00 0.00 0.00 64 1006.0
20260505015033 43 343 7.0 13.0 0.00 0.00 0.00 64 1006.0
20260505014536 43 349 4.3 10.4 0.00 0.00 0.00 63 1005.9
20260505014026 43 337 5.2 11.3 0.00 0.00 0.00 62 1005.8
20260505013529 44 347 6.1 12.2 0.00 0.00 0.00 61 1005.7
20260505013029 44 19 4.3 13.9 0.00 0.00 0.00 60 1005.6
20260505012525 44 327 8.7 13.9 0.00 0.00 0.00 59 1005.5
20260505012025 44 319 6.1 13.0 0.00 0.00 0.00 59 1005.4
20260505011525 44 35 7.8 13.9 0.00 0.00 0.00 58 1005.4
20260505011023 44 332 8.7 14.8 0.00 0.00 0.00 57 1005.4
20260505010523 45 355 8.7 14.8 0.00 0.00 0.00 57 1005.4
20260505010023 45 336 4.3 14.8 0.00 0.00 0.00 57 1005.2
20260505005523 45 337 6.1 14.8 0.00 0.00 0.00 58 1005.2
20260505005024 45 340 7.8 14.8 0.00 0.00 0.00 57 1005.1
20260505004523 45 355 8.7 14.8 0.00 0.00 0.00 56 1005.1
20260505004021 46 348 6.1 18.2 0.00 0.00 0.00 55 1005.1
20260505003519 46 355 7.0 18.2 0.00 0.00 0.00 53 1005.0
20260505003019 46 337 9.6 17.4 0.00 0.00 0.00 51 1005.0
20260505002519 46 338 10.4 17.4 0.00 0.00 0.00 48 1004.9
20260505002018 46 259 8.7 17.4 0.00 0.00 0.00 47 1004.8
20260505001518 47 355 8.7 21.7 0.00 0.00 0.00 48 1004.7
20260505001017 47 326 13.9 21.7 0.00 0.00 0.00 47 1004.8
20260505000517 47 332 9.6 18.2 0.00 0.00 0.00 47 1004.7
20260505000028 47 309 9.6 20.9 0.00 0.00 0.00 47 1004.7
20260504235517 47 297 12.2 20.9 0.00 0.00 0.00 46 1004.6
20260504235017 47 5 7.0 16.5 0.00 0.00 0.00 45 1004.6
20260504234516 47 323 9.6 18.2 0.00 0.00 0.00 44 1004.6
20260504234017 47 329 9.6 20.9 0.00 0.00 0.00 44 1004.4
20260504233515 47 333 7.8 20.9 0.00 0.00 0.00 45 1004.5
20260504233020 47 346 13.0 20.9 0.00 0.00 0.00 44 1004.4
20260504232515 48 323 10.4 20.0 0.00 0.00 0.00 44 1004.5
20260504232016 48 302 7.0 18.2 0.00 0.00 0.00 44 1004.4
20260504231613 48 306 9.6 19.1 0.00 0.00 0.00 44 1004.3
20260504231014 48 324 9.6 23.5 0.00 0.00 0.00 44 1004.3
20260504230513 48 329 13.0 23.5 0.00 0.00 0.00 44 1004.1
20260504230016 48 310 11.3 23.5 0.00 0.00 0.00 43 1004.2
20260504225512 48 279 12.2 21.7 0.00 0.00 0.00 44 1004.2
20260504225011 48 261 10.4 21.7 0.00 0.00 0.00 44 1004.2
20260504224514 48 275 8.7 23.5 0.00 0.00 0.00 45 1004.1
20260504224014 48 323 9.6 23.5 0.00 0.00 0.00 45 1004.0
20260504223512 48 309 12.2 21.7 0.00 0.00 0.00 45 1004.0
20260504223009 48 338 13.0 26.9 0.00 0.00 0.00 45 1003.9
20260504222510 48 315 13.0 26.9 0.00 0.00 0.00 46 1003.9
20260504222008 48 292 4.3 22.6 0.00 0.00 0.00 47 1003.8
20260504221508 49 344 10.4 20.9 0.00 0.00 0.00 46 1003.8
20260504221008 48 270 9.6 20.0 0.00 0.00 0.00 47 1003.7
20260504220508 49 230 9.6 21.7 0.00 0.00 0.00 46 1003.7
20260504220015 48 265 13.0 21.7 0.00 0.00 0.00 47 1003.4
20260504215507 48 350 11.3 21.7 0.00 0.00 0.00 48 1003.6
20260504215007 48 329 10.4 22.6 0.00 0.00 0.00 47 1003.6
20260504214509 48 325 11.3 22.6 0.00 0.00 0.00 47 1003.5
20260504214010 48 328 11.3 20.9 0.00 0.00 0.00 48 1003.3
20260504213506 49 12 9.6 19.1 0.00 0.00 0.00 51 1003.4
20260504213009 48 319 9.6 25.2 0.00 0.00 0.00 50 1003.4
20260504212508 48 338 5.2 18.2 0.00 0.00 0.00 52 1003.4
20260504212004 48 299 8.7 20.0 0.00 0.00 0.00 53 1003.4
20260504211504 48 321 11.3 20.0 0.00 0.00 0.00 53 1003.4
20260504211004 48 339 10.4 18.2 0.00 0.00 0.00 52 1003.5
20260504210503 48 317 6.1 26.9 0.00 0.00 0.00 52 1003.3
20260504210004 48 306 13.0 26.9 0.00 0.00 0.00 51 1003.2
20260504205503 48 300 8.7 19.1 0.00 0.00 0.00 52 1003.3
20260504205005 48 288 12.2 20.0 0.00 0.00 0.00 52 1003.3
20260504204502 48 344 7.8 21.7 0.00 0.00 0.00 52 1003.3
20260504204002 47 279 9.6 21.7 0.00 0.00 0.00 51 1003.3
20260504203503 48 340 8.7 19.1 0.00 0.00 0.00 50 1003.3
20260504203005 48 355 8.7 18.2 0.00 0.00 0.00 49 1003.3
20260504202504 49 304 7.0 17.4 0.00 0.00 0.00 49 1003.3
20260504202002 48 355 6.1 16.5 0.00 0.00 0.00 49 1003.3
20260504201501 48 265 7.8 19.1 0.00 0.00 0.00 48 1003.2
20260504201003 48 5 10.4 20.0 0.00 0.00 0.00 48 1003.3
20260504200501 48 66 7.0 20.0 0.00 0.00 0.00 47 1003.1
20260504195600 48 325 7.0 18.2 0.00 0.00 0.00 48 1003.2
20260504195502 48 345 7.0 18.2 0.00 0.00 0.00 47 1003.1
20260504195101 48 267 4.3 18.2 0.00 0.00 0.00 47 1003.2
20260504194610 48 320 9.6 18.2 0.00 0.00 0.00 47 1003.2
20260504194100 48 318 8.7 15.6 0.00 0.00 0.00 50 1003.2
20260504193559 47 294 9.6 19.1 0.00 0.00 0.00 50 1003.3
20260504193059 47 310 11.3 20.9 0.00 0.00 0.00 50 1003.3
20260504192600 47 339 7.0 20.9 0.00 0.00 0.00 51 1003.3
20260504192058 47 288 7.8 17.4 0.00 0.00 0.00 51 1003.3
20260504191559 46 310 10.4 17.4 0.00 0.00 0.00 52 1003.3
20260504191057 46 295 7.8 18.2 0.00 0.00 0.00 53 1003.2
20260504190557 46 282 8.7 18.2 0.00 0.00 0.00 52 1003.3
20260504190156 46 256 8.7 18.2 0.00 0.00 0.00 53 1003.2
20260504185556 46 341 9.6 20.0 0.00 0.00 0.00 53 1003.3
20260504185055 46 321 12.2 28.7 0.00 0.00 0.00 54 1003.2
20260504184558 46 323 15.6 27.8 0.00 0.00 0.00 54 1003.0
20260504184058 46 323 10.4 21.7 0.00 0.00 0.00 55 1003.0
20260504183555 46 316 11.3 21.7 0.00 0.00 0.00 55 1003.0
20260504183054 46 283 12.2 17.4 0.00 0.00 0.00 53 1003.0
20260504182553 46 278 5.2 20.9 0.00 0.00 0.00 53 1002.8
20260504182052 46 350 12.2 20.9 0.00 0.00 0.00 54 1002.8